Preview of NWS' New Version of Forecast
This preview is not operational and should not be used for support decisions.

Regional Weather Roundup (RWR)

Issued by National Weather Service (NWS)

                            
000
ASUS45 KBOI 210410
RWRID 

IDAHO REGIONAL WEATHER ROUNDUP
NATIONAL WEATHER SERVICE BOISE ID
900 PM MST WED FEB 20 2019

NOTE: "FAIR" INDICATES FEW OR NO CLOUDS BELOW 12000 FEET
WITH NO SIGNIFICANT WEATHER AND/OR OBSTRUCTIONS TO VISIBILITY

IDZ012-014-210500-
SOUTHWEST IDAHO

  
CITY           SKY/WX    TMP DP  RH WIND       PRES   REMARKS
BOISE          MOCLDY    22  19  89 SE7       29.68R WCI  13          
CALDWELL       MOCLDY    27  24  89 N5        29.70S WCI  22          
MOUNTAIN HOME  CLOUDY    29  29 100 SE8       29.68S WCI  21          
$$

IDZ016-017-210500-
SOUTHCENTRAL IDAHO

  
CITY           SKY/WX    TMP DP  RH WIND       PRES   REMARKS
BURLEY         CLOUDY    17  15  92 CALM      29.63S                  
JEROME         LGT SNOW  19  15  84 NE14      29.65S FOG     WCI   6  
TWIN FALLS     LGT SNOW  25  23  92 E7        29.63S FOG     WCI  17  
$$

IDZ019>023-210500-
SOUTHEAST IDAHO

  
CITY           SKY/WX    TMP DP  RH WIND       PRES   REMARKS
IDAHO FALLS    MOCLDY    14  10  84 N7        29.69R WCI   4          
POCATELLO      PTCLDY     8   6  92 CALM      29.67S                  
REXBURG        CLOUDY    17  12  80 NE5       29.68R WCI  10          
$$

IDZ006-010-011-018-031-032-210500-
CENTRAL IDAHO MOUNTAINS

  
CITY           SKY/WX    TMP DP  RH WIND       PRES   REMARKS
MCCALL         PTCLDY     9   6  88 N3        29.57S                  
HAILEY         CLEAR     12   9  85 NW7       29.64R WCI   2          
STANLEY          N/A     15   6  67 CALM      29.55R                  
SALMON         CLOUDY    20  16  84 N3        29.67R                  
CHALLIS        CLOUDY    19  11  70 CALM      29.60R                  
$$

IDZ002-004-006-007-026-210500-
NORTHERN IDAHO

  
CITY           SKY/WX    TMP DP  RH WIND       PRES   REMARKS
LEWISTON       LGT SNOW  27  24  89 SW7       29.84R FOG     WCI  19  
LOWELL           N/A     31  29  92 CALM      29.80R                  
COEUR D'ALENE  CLEAR     23  17  78 NE9       29.81R WCI  13          
MULLAN PASS    PTCLDY    12   7  80 VRB5      29.61S WCI   4          
$$